User: anonymous   Login
Location: Unspecified
(0.0000°N, 0.0000°E)
Time: 08:41:00
(UTC+00:00)
Language:

USA 149 - Orbit

View from above orbital plane
View from above orbital plane
View from above satellite
View from above satellite

Ground track
Ground track

The orbit data is extracted from the following two-line orbital elements,

1 26356U 00024A   18227.64911384 0.00000000  00000-0  00000-0 0    07
2 26356  10.9670  31.7735 0002000 287.8230  72.1769  1.00270000    07
Epoch (UTC): 15 August 2018 15:34:43
Eccentricity: 0.0002000
inclination: 10.9670°
perigee height: 35778 km
apogee height: 35795 km
right ascension of ascending node: 31.7735°
argument of perigee: 287.8230°
revolutions per day: 1.00270000
mean anomaly at epoch: 72.1769°
orbit number at epoch: 0

The dashed part of the orbit path shows where the satellite is in the earth's shadow,  

DLR